Tracking 19170 objects as of 23-May-2018
HD Live streaming from Space Station
objects crossing your sky now

WESTFORD NEEDLES

Track WESTFORD NEEDLES now!
10-day predictions
WESTFORD NEEDLES is classified as:


NORAD ID: 2381
Int'l Code: 1963-014AB
Perigee: 2,612.4 km
Apogee: 4,633.2 km
Inclination: 87.1 °
Period: 165.7 minutes
Semi major axis: 9993 km
RCS: 0.2808 m2 (medium)
Launch date: May 9, 1963
Source: United States (US)
Launch site: AIR FORCE WESTERN TEST RANGE (AFWTR)
aabbcc
Your satellite tracking list
Your tracking list is empty




NASA's NSSDC Master Catalog

Two Line Element Set (TLE):
1  2381U 63014AB  18141.16508217 +.00001994 +00000-0 +53755+0 0  9990
2  2381 087.0840 042.0819 1011055 144.2544 223.0481 08.68971805135274
Source of the keplerian elements: AFSPC